World > North America > United States > Illinois > Van Burensburg

Hourly Van Burensburg, IL Regional Weather

Feedback E-mail the Weather

Quick WX

Van Burensburg, IL Weather Maps

°F °C°F °C
Van Burensburg Weather Map
UTC Time: 8/15/2022, 16:13
Your Time:

Van Burensburg, IL Regional Weather

Expires:202208151700;;086294
ASUS43 KLOT 151610
RWRIL 

ILLINOIS REGIONAL WEATHER ROUNDUP
NATIONAL WEATHER SERVICE CHICAGO/ROMEOVILLE IL
1100 AM CDT MON AUG 15 2022

NOTE: "FAIR" INDICATES FEW OR NO CLOUDS BELOW 12,000 FEET WITH NO
SIGNIFICANT WEATHER AND/OR OBSTRUCTIONS TO VISIBILITY.

* THESE STATIONS ARE NOT UNDER NWS QUALITY CONTROL. THEY ALSO MAY NOT
  REPORT WEATHER SUCH AS PRECIPITATION OR FOG.


ILZ028>032-037-038-041>044-048-051>054-059>061-151700-
CENTRAL ILLINOIS
  
CITY           SKY/WX    TMP DP  RH WIND       PRES   REMARKS
PONTIAC        MOSUNNY   75  67  76 NE9       30.05F                  
BLOOMINGTON    PTSUNNY   74  63  68 NE13      30.05S                  
DECATUR        PTSUNNY   74  66  76 NE8       30.03S                  
PEORIA         PTSUNNY   75  63  66 NE9       30.06R                  
LACON*         PTSUNNY   74  67  76 NE8       30.05S                  
LINCOLN*       CLOUDY    73  66  77 NE7       30.04R                  
SPRINGFIELD    CLOUDY    70  63  78 N6        30.05S                  
TAYLORVILLE    CLOUDY    70  65  84 NE3       30.04S                  
$$


SKY/WX - Weather  TMP - Temperature  DP - Dew Point  RH - Humidity
WIND - Wind Direction/Speed PRES - Barometric Pressure VSB - Visibility
WCI - Wind Chill Index E13G22 Wind - East Wind 13 mph/Gusts of 22 mph

Trending Headlines

Van Burensburg Radar Loop



Van Burensburg Quick Facts


National Two Day Weather Forecast


E-mail the Van Burensburg Weather Forecast

Voice your opinion or tell us about page issues...